CW5456 Hansville WA US current weather conditions

sailwx.info

Wind from 093

Air temperature 6.1° C
Dewpoint 5.2° C

Last reported at 2017-Feb-22 18:55 UTC.
Time now 2017-Feb-22 20:04 UTC

Location: N 47°55' W 122°35'.
View on Google Maps.

See reports from other nearby stations

  
Tides and Currents Weather Stations Pressure Air Temp Water Temp Dewpoint Dewpoint Depression Visibility Wind Speed Wind Dir Waves Ship Positions
date/time (UTC)wind fromknots sea level pressurealtimeterstation pressurevisibilityair tempwater tempwave heightnotes
2017-Feb-22 19:55 112 2 gusting 7 7.8
2017-Feb-22 19:50 094 3 gusting 6 7.2
2017-Feb-22 19:45 123 6.7
2017-Feb-22 19:40 075 5 gusting 6 6.1
2017-Feb-22 19:35 078 5 gusting 5 6.1
2017-Feb-22 19:30 014 4 gusting 4 6.1
2017-Feb-22 19:25 104 3 gusting 3 6.7
2017-Feb-22 19:20 100 2 gusting 2 6.1
2017-Feb-22 19:15 065 1 gusting 3 6.7
2017-Feb-22 19:10 133 6.7
2017-Feb-22 19:05 132 3 gusting 6 6.7
2017-Feb-22 19:00 116 1 gusting 5 6.7
2017-Feb-22 18:55 093 6.1
2017-Feb-22 18:50 116 3 gusting 5 5.6
2017-Feb-22 18:45 108 0 gusting 2 5.6
2017-Feb-22 18:40 108 5.6
2017-Feb-22 18:35 108 1 gusting 2 5.6
2017-Feb-22 18:30 108 1 gusting 2 5.6
2017-Feb-22 18:25 108 5.6
2017-Feb-22 18:20 106 1 gusting 4 5.6
2017-Feb-22 18:15 131 0 gusting 4 5.6
2017-Feb-22 18:10 131 5.6
2017-Feb-22 18:05 131 5.0
2017-Feb-22 18:00 131 1 gusting 6 5.0
2017-Feb-22 17:55 139 5.0
2017-Feb-22 17:50 094 0 gusting 5 5.0
2017-Feb-22 17:45 093 5.0
2017-Feb-22 17:40 093 4.4
2017-Feb-22 17:35 113 1 gusting 4 4.4
2017-Feb-22 17:30 113 4.4
2017-Feb-22 17:25 113 4.4
2017-Feb-22 17:20 113 2 gusting 2 5.0
2017-Feb-22 17:15 113 0 gusting 4 5.0
2017-Feb-22 17:10 113 5.0
2017-Feb-22 17:05 113 1 gusting 4 5.0
2017-Feb-22 17:00 161 3 gusting 4 5.0
2017-Feb-22 16:55 163 1 gusting 4 5.0
2017-Feb-22 16:50 108 0 gusting 3 5.0
2017-Feb-22 16:45 108 1 gusting 2 4.4
2017-Feb-22 16:40 123 4.4
2017-Feb-22 16:35 123 0 gusting 0 3.9
2017-Feb-22 16:30 123 3.9
2017-Feb-22 16:25 123 3.9
2017-Feb-22 16:20 123 3.3
2017-Feb-22 16:15 123 3.3
2017-Feb-22 16:09 123 0 gusting 2 3.3
2017-Feb-22 16:05 122 0 gusting 2 3.3
2017-Feb-22 16:00 123 1 gusting 1 3.3
2017-Feb-22 15:54 123 3.3
2017-Feb-22 15:49 123 3.3
2017-Feb-22 15:45 123 1 gusting 2 2.8
2017-Feb-22 15:39 123 1 gusting 2 2.8
2017-Feb-22 15:35 122 1 gusting 2 2.8
2017-Feb-22 15:29 122 0 gusting 2 2.8
2017-Feb-22 15:20 122 0 gusting 2 2.8
2017-Feb-22 15:09 123 2.2
2017-Feb-22 15:05 123 2.2
2017-Feb-22 15:00 122 2.2
2017-Feb-22 14:54 122 2.2
2017-Feb-22 14:49 123 2.2
2017-Feb-22 14:45 123 0 gusting 1 2.2
2017-Feb-22 14:39 122 2.2
2017-Feb-22 14:34 123 0 gusting 1 2.2
2017-Feb-22 14:29 123 0 gusting 2 2.2
2017-Feb-22 14:24 123 1 gusting 2 2.2
2017-Feb-22 14:19 122 1 gusting 2 2.2
2017-Feb-22 14:14 122 0 gusting 3 2.2
2017-Feb-22 14:09 123 1 gusting 3 2.8
2017-Feb-22 14:04 122 1 gusting 3 2.8
2017-Feb-22 13:59 122 3 gusting 4 2.8
2017-Feb-22 13:54 087 1 gusting 4 2.8
2017-Feb-22 13:49 107 1 gusting 3 2.8
2017-Feb-22 13:44 095 1 gusting 2 2.8
2017-Feb-22 13:39 097 2.8
2017-Feb-22 13:34 097 2.8
2017-Feb-22 13:29 106 2 gusting 5 3.3
2017-Feb-22 13:24 093 2 gusting 5 3.3
2017-Feb-22 13:19 095 1 gusting 5 3.3
2017-Feb-22 13:09 090 5 gusting 6 3.3
2017-Feb-22 13:04 104 3 gusting 4 3.3
2017-Feb-22 12:54 216 1 gusting 3 3.9
2017-Feb-22 12:49 217 2 gusting 2 3.9
2017-Feb-22 12:44 217 1 gusting 2 3.9
2017-Feb-22 12:39 217 3.9
2017-Feb-22 12:34 217 3.9
2017-Feb-22 12:29 217 3.9
2017-Feb-22 12:24 217 3.9
2017-Feb-22 12:14 217 3.9
2017-Feb-22 12:09 217 3.3
2017-Feb-22 11:59 217 3.3
2017-Feb-22 11:54 217 3.3
2017-Feb-22 11:49 217 3.3
2017-Feb-22 11:44 217 3.3
2017-Feb-22 11:39 217 3.3
2017-Feb-22 11:30 217 3.3
2017-Feb-22 11:25 217 3.3
2017-Feb-22 11:20 217 3.3
2017-Feb-22 11:15 217 3.3
2017-Feb-22 11:10 217 0 gusting 0 3.3
2017-Feb-22 11:05 217 2.8
2017-Feb-22 11:00 217 2.8
2017-Feb-22 10:55 217 2.8
2017-Feb-22 10:50 217 2.8
2017-Feb-22 10:44 217 2.8
2017-Feb-22 10:35 217 1 gusting 3 3.3
2017-Feb-22 10:30 229 3.3
2017-Feb-22 10:24 229 1 gusting 2 3.3
2017-Feb-22 10:15 229 0 gusting 1 3.3
2017-Feb-22 10:10 230 3.3
2017-Feb-22 10:05 230 3.3
2017-Feb-22 10:00 230 1 gusting 3 3.3
2017-Feb-22 09:55 230 1 gusting 1 3.3
2017-Feb-22 09:50 230 3.3
2017-Feb-22 09:45 230 3.3
2017-Feb-22 09:40 229 3.3
2017-Feb-22 09:35 230 3.3
2017-Feb-22 09:30 230 3.3
2017-Feb-22 09:25 229 3.3
2017-Feb-22 09:20 230 3.3
2017-Feb-22 09:15 230 1 gusting 1 3.3
2017-Feb-22 09:10 230 3.3
2017-Feb-22 09:05 229 3.3
2017-Feb-22 09:00 230 3.3
2017-Feb-22 08:55 230 3.9
2017-Feb-22 08:50 230 3.9
2017-Feb-22 08:45 230 3.9
2017-Feb-22 08:40 229 3.9
2017-Feb-22 08:35 230 0 gusting 3 3.9
2017-Feb-22 08:25 230 0 gusting 2 3.9
2017-Feb-22 08:20 230 0 gusting 2 3.9
2017-Feb-22 08:15 230 3.9
2017-Feb-22 08:05 229 4.4
2017-Feb-22 08:00 229 0 gusting 2 4.4
2017-Feb-22 07:55 230 0 gusting 1 4.4
2017-Feb-22 07:50 230 4.4
2017-Feb-22 07:40 229 0 gusting 2 4.4
2017-Feb-22 07:35 230 2 gusting 2 4.4
2017-Feb-22 07:30 232 1 gusting 1 4.4
2017-Feb-22 07:25 232 1 gusting 1 4.4
2017-Feb-22 07:20 232 0 gusting 2 4.4
2017-Feb-22 07:15 232 1 gusting 2 4.4
2017-Feb-22 07:10 232 0 gusting 2 4.4
2017-Feb-22 07:05 232 1 gusting 2 4.4
2017-Feb-22 07:00 232 1 gusting 2 4.4
2017-Feb-22 06:55 232 4.4
2017-Feb-22 06:50 232 4.4
2017-Feb-22 06:45 232 4.4
2017-Feb-22 06:35 232 1 gusting 2 4.4
2017-Feb-22 06:30 232 4.4
2017-Feb-22 06:20 232 4.4
2017-Feb-22 06:15 232 4.4
2017-Feb-22 06:10 232 4.4
2017-Feb-22 06:00 281 5.0
2017-Feb-22 05:55 350 2 gusting 2 5.0
2017-Feb-22 05:50 260 5.0
2017-Feb-22 05:45 260 5.0
2017-Feb-22 05:40 261 5.0
2017-Feb-22 05:35 301 0 gusting 2 5.0
2017-Feb-22 05:30 301 5.0
2017-Feb-22 05:25 301 5.0
2017-Feb-22 05:20 301 5.0
2017-Feb-22 05:15 301 0 gusting 6 5.0
2017-Feb-22 05:10 273 5.6
2017-Feb-22 05:05 273 5.6
2017-Feb-22 05:00 273 5.6
2017-Feb-22 04:55 273 5.6
2017-Feb-22 04:50 273 5.6
2017-Feb-22 04:45 273 0 gusting 6 5.6
2017-Feb-22 04:40 273 0 gusting 10 5.6
2017-Feb-22 04:35 276 1 gusting 10 5.6
2017-Feb-22 04:30 283 7 gusting 8 5.6
2017-Feb-22 04:25 327 1 gusting 2 5.6
2017-Feb-22 04:20 327 0 gusting 2 5.6
2017-Feb-22 04:15 327 0 gusting 5 5.6
2017-Feb-22 04:10 327 5.6
2017-Feb-22 04:05 337 5.6
2017-Feb-22 04:00 332 5.6
2017-Feb-22 03:55 337 5.6
2017-Feb-22 03:50 337 5.6
2017-Feb-22 03:45 337 5.6
2017-Feb-22 03:40 337 5.6
2017-Feb-22 03:35 337 6.1
2017-Feb-22 03:30 337 6.1
2017-Feb-22 03:25 332 0 gusting 3 6.1
2017-Feb-22 03:15 337 2 gusting 3 6.1
2017-Feb-22 03:10 332 1 gusting 2 6.1
2017-Feb-22 03:00 332 1 gusting 2 6.7
2017-Feb-22 02:55 337 6.7
2017-Feb-22 02:50 332 1 gusting 2 6.7
2017-Feb-22 02:45 332 1 gusting 2 6.7
2017-Feb-22 02:40 337 0 gusting 2 6.7
2017-Feb-22 02:35 337 1 gusting 2 7.2
2017-Feb-22 02:30 332 7.2
2017-Feb-22 02:25 332 0 gusting 10 7.2
2017-Feb-22 02:20 259 7.2
2017-Feb-22 02:15 332 7 gusting 12 7.2
2017-Feb-22 02:10 341 11 gusting 12 7.2
2017-Feb-22 02:05 352 7 gusting 10 7.2
2017-Feb-22 01:55 350 7 gusting 10 7.2
2017-Feb-22 01:50 332 7 gusting 10 7.2
2017-Feb-22 01:45 309 5 gusting 13 7.2
2017-Feb-22 01:40 302 7 gusting 13 7.8
2017-Feb-22 01:35 332 10 gusting 12 7.8
2017-Feb-22 01:30 347 8 gusting 10 7.8
2017-Feb-22 01:25 010 6 gusting 7 7.8
2017-Feb-22 01:20 025 3 gusting 6 7.8
2017-Feb-22 01:15 029 0 gusting 6 7.8
2017-Feb-22 01:10 027 4 gusting 6 7.8
2017-Feb-22 01:05 031 3 gusting 4 7.8
2017-Feb-22 01:00 031 3 gusting 4 7.8
2017-Feb-22 00:55 028 7.8
2017-Feb-22 00:50 028 7.8
2017-Feb-22 00:45 028 7.8
2017-Feb-22 00:40 025 3 gusting 5 7.8
2017-Feb-22 00:35 014 3 gusting 4 7.8
2017-Feb-22 00:30 015 3 gusting 4 7.8
2017-Feb-22 00:25 015 2 gusting 5 7.8
2017-Feb-22 00:20 012 3 gusting 5 7.8
2017-Feb-22 00:15 010 3 gusting 5 7.8
2017-Feb-22 00:10 010 5 gusting 5 7.8
2017-Feb-22 00:05 359 4 gusting 6 7.8
2017-Feb-22 00:00 358 3 gusting 7 7.8
2017-Feb-21 23:55 356 4 gusting 7 7.8
2017-Feb-21 23:50 348 6 gusting 6 7.8
2017-Feb-21 23:45 351 6 gusting 6 7.8
2017-Feb-21 23:40 002 6 gusting 7 7.8
2017-Feb-21 23:35 001 4 gusting 7 7.8
2017-Feb-21 23:30 002 6 gusting 6 7.8
2017-Feb-21 23:25 7.8
2017-Feb-21 23:20 006 4 gusting 7 7.8
2017-Feb-21 23:15 006 6 gusting 8 7.2
2017-Feb-21 23:10 002 5 gusting 9 7.2
2017-Feb-21 23:05 354 7 gusting 10 7.8
2017-Feb-21 23:00 342 9 gusting 11 7.8
2017-Feb-21 22:55 350 8 gusting 11 7.8
2017-Feb-21 22:50 350 10 gusting 11 7.8
2017-Feb-21 22:45 350 9 gusting 12 7.8
2017-Feb-21 22:40 343 8 gusting 12 7.8
2017-Feb-21 22:35 344 11 gusting 11 7.8
2017-Feb-21 22:30 349 9 gusting 10 7.8
2017-Feb-21 22:25 332 9 gusting 10 7.8
2017-Feb-21 22:20 337 8 gusting 10 7.8
2017-Feb-21 22:15 341 7 gusting 10 7.8
2017-Feb-21 22:10 343 8 gusting 10 7.8
2017-Feb-21 22:05 337 6 gusting 10 7.8
2017-Feb-21 22:00 343 10 gusting 11 7.8
2017-Feb-21 21:55 345 8 gusting 11 7.8
2017-Feb-21 21:50 345 9 gusting 12 7.2
2017-Feb-21 21:45 343 10 gusting 12 7.2
2017-Feb-21 21:40 332 10 gusting 12 7.2
2017-Feb-21 21:35 337 10 gusting 12 7.2
2017-Feb-21 21:30 332 11 gusting 13 7.2
2017-Feb-21 21:25 332 12 gusting 13 7.2
2017-Feb-21 21:20 344 11 gusting 12 7.2
2017-Feb-21 21:15 341 9 gusting 12 7.2
2017-Feb-21 21:10 347 9 gusting 12 7.2
2017-Feb-21 21:05 327 10 gusting 11 7.2
2017-Feb-21 20:55 310 8 gusting 11 7.2
2017-Feb-21 20:50 337 10 gusting 11 7.2
2017-Feb-21 20:45 332 7 gusting 13 7.2
2017-Feb-21 20:40 332 10 gusting 13 7.2
2017-Feb-21 20:35 332 10 gusting 13 7.2
2017-Feb-21 20:30 332 11 gusting 13 7.2
2017-Feb-21 20:25 300 8 gusting 13 7.2
2017-Feb-21 20:19 315 9 gusting 13 7.2
2017-Feb-21 20:15 327 6 gusting 13 7.2
2017-Feb-21 20:10 287 9 gusting 14 6.7
2017-Feb-21 20:04 283 7 gusting 15 6.7
2017-Feb-21 19:59 274 7 gusting 15 6.7
2017-Feb-21 19:54 327 9 gusting 14 6.7
2017-Feb-21 19:50 283 13 gusting 16 6.7
2017-Feb-21 19:44 295 11 gusting 16 6.7
2017-Feb-21 19:40 264 14 gusting 16 6.7
2017-Feb-21 19:34 303 13 gusting 16 6.7
2017-Feb-21 19:29 299 14 gusting 15 6.7
2017-Feb-21 19:25 229 10 gusting 14 6.7
2017-Feb-21 19:20 337 11 gusting 15 6.7
2017-Feb-21 19:14 224 7 gusting 15 6.7
2017-Feb-21 19:09 283 6 gusting 15 6.7
2017-Feb-21 19:04 233 8 gusting 13 6.7
2017-Feb-21 18:59 310 11 gusting 13 6.7
2017-Feb-21 18:55 261 8 gusting 13 6.7
2017-Feb-21 18:50 241 6 gusting 10 6.7
2017-Feb-21 18:44 239 3 gusting 13 6.7
2017-Feb-21 18:39 230 2 gusting 13 6.7
2017-Feb-21 18:34 274 4 gusting 14 6.7
2017-Feb-21 18:29 272 8 gusting 14 6.7
2017-Feb-21 18:24 248 0 gusting 13 6.7
2017-Feb-21 18:19 269 6 gusting 13 6.7
2017-Feb-21 18:14 251 9 gusting 13 6.7
2017-Feb-21 18:09 306 1 gusting 13 6.7
2017-Feb-21 17:59 253 3 gusting 15 6.7
2017-Feb-21 17:54 291 15 gusting 16 6.7
2017-Feb-21 17:49 245 12 gusting 16 6.7
2017-Feb-21 17:44 247 9 gusting 18 6.7
2017-Feb-21 17:34 261 13 gusting 16 6.7
2017-Feb-21 17:24 310 11 gusting 18 6.7
2017-Feb-21 17:19 345 9 gusting 19 6.7
2017-Feb-21 17:14 337 10 gusting 19 6.7
2017-Feb-21 17:09 287 11 gusting 18 6.7
2017-Feb-21 17:04 258 13 gusting 18 7.2
2017-Feb-21 16:54 249 10 gusting 17 7.2
2017-Feb-21 16:44 285 11 gusting 16 7.2
2017-Feb-21 16:39 234 9 gusting 16 7.2
2017-Feb-21 16:34 259 9 gusting 17 7.2
2017-Feb-21 16:29 240 11 gusting 18 7.2
2017-Feb-21 16:09 332 8 gusting 18 7.2
2017-Feb-21 16:04 341 9 gusting 18 7.2
2017-Feb-21 15:55 281 13 gusting 19 7.2
2017-Feb-21 15:50 239 12 gusting 18 7.2
2017-Feb-21 15:45 298 12 gusting 18 7.2
2017-Feb-21 15:40 310 12 gusting 18 7.2
2017-Feb-21 15:35 241 16 gusting 18 7.2
2017-Feb-21 15:30 245 14 gusting 17 7.2
2017-Feb-21 15:25 273 9 gusting 17 7.2
2017-Feb-21 15:15 279 13 gusting 14 7.2
2017-Feb-21 15:10 255 14 gusting 16 7.2
2017-Feb-21 15:05 249 5 gusting 16 7.2
2017-Feb-21 15:00 276 8 gusting 13 7.2
2017-Feb-21 14:55 286 10 gusting 13 7.2
2017-Feb-21 14:50 300 7 gusting 12 7.2
2017-Feb-21 14:45 268 9 gusting 12 7.2
2017-Feb-21 14:40 242 2 gusting 12 6.7
2017-Feb-21 14:35 240 2 gusting 13 6.7
2017-Feb-21 14:30 281 11 gusting 13 6.7
2017-Feb-21 14:25 316 7 gusting 12 6.7
2017-Feb-21 14:20 235 8 gusting 10 6.7
2017-Feb-21 14:15 251 5 gusting 10 6.7
2017-Feb-21 14:10 264 10 gusting 12 6.7
2017-Feb-21 14:05 294 10 gusting 12 6.7
2017-Feb-21 14:00 294 3 gusting 11 6.7
2017-Feb-21 13:55 226 3 gusting 9 6.7
2017-Feb-21 13:50 244 3 gusting 9 6.7
2017-Feb-21 13:45 255 3 gusting 12 6.7
2017-Feb-21 13:40 242 6 gusting 12 6.7
2017-Feb-21 13:35 275 6 gusting 10 6.7
2017-Feb-21 13:30 238 2 gusting 10 6.7
2017-Feb-21 13:25 284 3 gusting 10 6.7
2017-Feb-21 13:20 278 4 gusting 13 6.7
2017-Feb-21 13:15 249 3 gusting 13 6.7
2017-Feb-21 13:10 264 6 gusting 13 6.7
2017-Feb-21 13:05 251 2 gusting 13 6.7
2017-Feb-21 13:00 247 8 gusting 13 6.7
2017-Feb-21 12:55 294 13 gusting 13 6.7
2017-Feb-21 12:50 241 12 gusting 15 7.2
2017-Feb-21 12:45 286 12 gusting 15 6.7
2017-Feb-21 12:40 283 13 gusting 14 6.7
2017-Feb-21 12:35 332 6 gusting 14 6.7
2017-Feb-21 12:30 297 7 gusting 16 6.7
2017-Feb-21 12:20 280 15 gusting 16 6.7
2017-Feb-21 12:15 332 15 gusting 16 6.7
2017-Feb-21 12:10 332 12 gusting 15 6.7
2017-Feb-21 12:05 337 14 gusting 15 6.7
2017-Feb-21 12:00 327 11 gusting 15 6.7
2017-Feb-21 11:50 297 9 gusting 14 6.7
2017-Feb-21 11:45 332 10 gusting 14 6.7
2017-Feb-21 11:40 342 13 gusting 14 6.7
2017-Feb-21 11:35 341 13 gusting 15 6.7
2017-Feb-21 11:25 332 12 gusting 15 6.7
2017-Feb-21 11:20 341 12 gusting 15 6.7
2017-Feb-21 11:10 327 7 gusting 13 6.7
2017-Feb-21 11:05 332 12 gusting 13 6.7
2017-Feb-21 11:00 327 8 gusting 14 6.7
2017-Feb-21 10:55 332 9 gusting 14 6.7
2017-Feb-21 10:50 242 14 gusting 14 6.7
2017-Feb-21 10:45 332 7 gusting 13 6.7
2017-Feb-21 10:40 327 8 gusting 11 6.7
2017-Feb-21 10:35 345 7 gusting 10 6.7
2017-Feb-21 10:25 352 8 gusting 11 6.7
2017-Feb-21 10:20 327 6 gusting 12 6.7
2017-Feb-21 10:15 293 10 gusting 12 6.7
2017-Feb-21 10:10 281 6 gusting 13 6.7
2017-Feb-21 10:05 297 11 gusting 13 6.7
2017-Feb-21 10:00 288 11 gusting 11 6.7
2017-Feb-21 09:55 264 8 gusting 11 6.7
2017-Feb-21 09:50 299 6 gusting 11 6.7
2017-Feb-21 09:45 311 6 gusting 11 6.7
2017-Feb-21 09:40 293 9 gusting 11 6.7
2017-Feb-21 09:35 332 10 gusting 11 6.7
2017-Feb-21 09:30 307 3 gusting 8 6.7
2017-Feb-21 09:25 268 6 gusting 7 6.7
2017-Feb-21 09:20 347 3 gusting 5 6.7
2017-Feb-21 09:15 008 3 gusting 4 6.7
2017-Feb-21 09:10 008 4 gusting 4 6.7
2017-Feb-21 09:05 014 3 gusting 4 6.7
2017-Feb-21 09:00 029 3 gusting 4 6.7
2017-Feb-21 08:55 029 2 gusting 4 6.7
2017-Feb-21 08:50 031 2 gusting 4 6.7
2017-Feb-21 08:45 031 4 gusting 4 6.7
2017-Feb-21 08:40 031 2 gusting 3 6.7
2017-Feb-21 08:35 031 1 gusting 3 6.7
2017-Feb-21 08:30 031 6.7
2017-Feb-21 08:25 031 2 gusting 5 6.7
2017-Feb-21 08:20 083 6.7
2017-Feb-21 08:15 083 6.7
2017-Feb-21 08:10 082 6.7
2017-Feb-21 08:05 082 6.7
2017-Feb-21 08:00 083 6.7
2017-Feb-21 07:55 083 6.7
2017-Feb-21 07:50 082 1 gusting 3 6.7
2017-Feb-21 07:45 058 1 gusting 3 6.7
2017-Feb-21 07:40 039 6.7
2017-Feb-21 07:35 045 6.7
2017-Feb-21 07:30 045 1 gusting 1 6.7
2017-Feb-21 07:25 044 6.7
2017-Feb-21 07:20 045 6.7
2017-Feb-21 07:15 045 6.7
2017-Feb-21 07:10 044 6.7
2017-Feb-21 07:05 089 6.7
2017-Feb-21 07:00 090 0 gusting 5 6.7
2017-Feb-21 06:55 084 2 gusting 2 6.7
2017-Feb-21 06:50 084 6.7
2017-Feb-21 06:45 084 6.7
2017-Feb-21 06:40 084 6.7
2017-Feb-21 06:35 083 1 gusting 3 6.7
2017-Feb-21 06:30 083 1 gusting 3 6.7
2017-Feb-21 06:25 083 6.7
2017-Feb-21 06:20 084 6.7
2017-Feb-21 06:15 084 2 gusting 2 6.7
2017-Feb-21 06:10 084 6.7
2017-Feb-21 06:05 084 6.7
2017-Feb-21 06:00 085 6.7
2017-Feb-21 05:55 075 0 gusting 3 6.7
2017-Feb-21 05:50 075 3 gusting 3 6.7
2017-Feb-21 05:45 090 0 gusting 2 6.7
2017-Feb-21 05:40 090 6.7
2017-Feb-21 05:35 090 6.7
2017-Feb-21 05:30 090 0 gusting 1 6.7
2017-Feb-21 05:25 090 6.7
2017-Feb-21 05:20 090 6.7
2017-Feb-21 05:15 090 6.7
2017-Feb-21 05:10 090 1 gusting 3 6.7
2017-Feb-21 05:05 088 6.7
2017-Feb-21 05:00 074 0 gusting 1 6.7
2017-Feb-21 04:55 075 6.7
2017-Feb-21 04:50 075 6.7
2017-Feb-21 04:45 056 6.7
2017-Feb-21 04:40 056 6.7
2017-Feb-21 04:35 056 6.7
2017-Feb-21 04:30 359 1 gusting 3 6.7
2017-Feb-21 04:25 071 0 gusting 3 6.7
2017-Feb-21 04:20 071 0 gusting 2 6.7
2017-Feb-21 04:15 072 6.7
2017-Feb-21 04:10 072 0 gusting 2 6.7
2017-Feb-21 04:05 071 6.7
2017-Feb-21 04:00 072 6.7
2017-Feb-21 03:54 077 6.7
2017-Feb-21 03:49 077 0 gusting 5 6.7
2017-Feb-21 03:45 077 2 gusting 6 6.7
2017-Feb-21 03:40 071 1 gusting 6 6.7
2017-Feb-21 03:34 078 2 gusting 5 6.7
2017-Feb-21 03:30 081 2 gusting 6 6.7
2017-Feb-21 03:24 069 6.7
2017-Feb-21 03:20 087 2 gusting 7 6.7
2017-Feb-21 03:14 071 2 gusting 5 6.7
2017-Feb-21 03:10 064 0 gusting 7 6.7
2017-Feb-21 03:04 066 0 gusting 7 6.7
2017-Feb-21 03:00 070 1 gusting 6 6.7
2017-Feb-21 02:55 080 1 gusting 6 6.7
2017-Feb-21 02:49 073 1 gusting 5 6.7
2017-Feb-21 02:44 082 5 gusting 6 6.7
2017-Feb-21 02:39 065 6.7
2017-Feb-21 02:34 091 0 gusting 3 6.7
2017-Feb-21 02:30 091 2 gusting 3 6.7
2017-Feb-21 02:24 090 6.7
2017-Feb-21 02:19 088 0 gusting 5 6.7
2017-Feb-21 02:14 069 0 gusting 5 6.7
2017-Feb-21 02:09 101 6.7
2017-Feb-21 02:04 101 3 gusting 6 6.7
2017-Feb-21 01:54 095 1 gusting 6 7.2
2017-Feb-21 01:49 101 2 gusting 4 7.2
2017-Feb-21 01:44 108 1 gusting 3 7.2
2017-Feb-21 01:39 117 2 gusting 2 7.2
2017-Feb-21 01:34 118 1 gusting 6 7.2
2017-Feb-21 01:25 110 4 gusting 5 7.8
2017-Feb-21 01:19 133 7.8
2017-Feb-21 01:14 120 7.8
2017-Feb-21 01:04 120 7.8
2017-Feb-21 00:59 086 7.8
2017-Feb-21 00:54 086 7.8
2017-Feb-21 00:44 098 1 gusting 3 7.8
2017-Feb-21 00:35 095 0 gusting 5 7.8
2017-Feb-21 00:29 113 7.8
2017-Feb-21 00:19 112 0 gusting 6 8.3
2017-Feb-21 00:10 118 0 gusting 5 8.3
2017-Feb-21 00:04 106 2 gusting 5 8.3
2017-Feb-20 23:54 135 8.3
2017-Feb-20 23:45 135 8.3
2017-Feb-20 23:40 135 8.3
2017-Feb-20 23:35 135 8.3
2017-Feb-20 23:30 135 8.3
2017-Feb-20 23:25 135 0 gusting 4 8.3
2017-Feb-20 23:20 135 1 gusting 4 8.9
2017-Feb-20 23:15 134 3 gusting 3 8.9
2017-Feb-20 23:10 134 1 gusting 4 8.9
2017-Feb-20 23:00 149 2 gusting 3 8.9
2017-Feb-20 22:55 158 8.9
2017-Feb-20 22:50 158 1 gusting 3 8.3
2017-Feb-20 22:45 221 8.3
2017-Feb-20 22:40 221 0 gusting 1 8.3
2017-Feb-20 22:35 221 8.3
2017-Feb-20 22:30 221 1 gusting 3 8.3
2017-Feb-20 22:25 221 8.3
2017-Feb-20 22:20 221 8.3
2017-Feb-20 22:15 221 0 gusting 0 8.3
2017-Feb-20 22:10 221 8.3
2017-Feb-20 22:05 221 8.3
2017-Feb-20 22:00 221 8.3
2017-Feb-20 21:55 221 8.3
2017-Feb-20 21:50 221 8.3
2017-Feb-20 21:45 221 8.3
2017-Feb-20 21:40 220 0 gusting 2 8.3
2017-Feb-20 21:35 220 8.3
2017-Feb-20 21:30 220 8.3
2017-Feb-20 21:25 220 8.3
2017-Feb-20 21:20 220 8.3
2017-Feb-20 21:15 212 1 gusting 6 7.8
2017-Feb-20 21:10 231 1 gusting 5 7.8
2017-Feb-20 21:05 327 0 gusting 4 7.8
2017-Feb-20 21:00 249 1 gusting 3 7.8
2017-Feb-20 20:55 310 1 gusting 5 7.8
2017-Feb-20 20:50 327 3 gusting 5 7.8
2017-Feb-20 20:45 291 7.8
2017-Feb-20 20:40 277 0 gusting 9 7.8
2017-Feb-20 20:35 273 8 gusting 9 7.8
2017-Feb-20 20:30 245 7.8
2017-Feb-20 20:25 235 2 gusting 10 7.8
2017-Feb-20 20:15 239 3 gusting 13 7.2
2017-Feb-20 20:10 235 3 gusting 13 7.2
2017-Feb-20 20:05 231 3 gusting 13 7.2
2017-Feb-20 20:00 240 6 gusting 13 7.2